Time,TemperatureF,DewpointF,PressureIn,WindDirection,WindDirectionDegrees,WindSpeedMPH,WindSpeedGustMPH,Humidity,HourlyPrecipIn,Conditions,Clouds,dailyrainin,SoftwareType,DateUTC
2014-01-19 05:25:00,22.1,19.9,27.78,SSE,157,1.7,-999.0,91,-99.99,,,0.00,Acu-Link.com,2014-01-19 11:25:00,
2014-01-19 06:20:00,21.4,19.2,27.76,SW,225,1.1,-999.0,91,-99.99,,,0.00,Acu-Link.com,2014-01-19 12:20:00,
2014-01-19 07:11:00,21.2,19.2,27.76,NNW,337,0.0,-999.0,92,-99.99,,,0.00,Acu-Link.com,2014-01-19 13:11:00,
2014-01-19 07:31:00,19.8,18.8,27.74,WNW,292,0.0,-999.0,96,-99.99,,,0.00,Acu-Link.com,2014-01-19 13:31:00,
2014-01-19 07:52:00,19.4,18.4,27.74,NNW,337,0.0,-999.0,96,-99.99,,,0.00,Acu-Link.com,2014-01-19 13:52:00,
2014-01-19 08:08:00,20.5,19.8,27.74,SSE,157,0.0,-999.0,97,-99.99,,,0.00,Acu-Link.com,2014-01-19 14:08:00,
2014-01-19 08:23:00,23.7,22.2,27.73,ESE,112,2.2,-999.0,94,-99.99,,,0.00,Acu-Link.com,2014-01-19 14:23:00,
2014-01-19 08:38:00,25.0,22.2,27.73,West,270,1.1,-999.0,89,-99.99,,,0.00,Acu-Link.com,2014-01-19 14:38:00,
2014-01-19 08:53:00,26.1,22.5,27.73,SSW,202,0.0,-999.0,86,-99.99,,,0.00,Acu-Link.com,2014-01-19 14:53:00,
2014-01-19 09:08:00,28.2,22.8,27.73,NW,315,0.0,-999.0,80,-99.99,,,0.00,Acu-Link.com,2014-01-19 15:08:00,
2014-01-19 09:24:00,29.3,23.6,27.74,SW,225,2.2,-999.0,79,-99.99,,,0.00,Acu-Link.com,2014-01-19 15:24:00,
2014-01-19 09:39:00,32.4,24.7,27.74,WNW,292,3.2,-999.0,73,-99.99,,,0.00,Acu-Link.com,2014-01-19 15:39:00,
2014-01-19 09:54:00,31.3,24.6,27.75,SSW,202,0.0,-999.0,76,-99.99,,,0.00,Acu-Link.com,2014-01-19 15:54:00,
2014-01-19 10:09:00,31.6,24.6,27.75,SW,225,2.2,-999.0,75,-99.99,,,0.00,Acu-Link.com,2014-01-19 16:09:00,
2014-01-19 10:24:00,32.0,24.3,27.76,SW,225,2.2,-999.0,73,-99.99,,,0.00,Acu-Link.com,2014-01-19 16:24:00,
2014-01-19 10:39:00,32.9,25.2,27.76,SSW,202,3.7,-999.0,73,-99.99,,,0.00,Acu-Link.com,2014-01-19 16:39:00,
2014-01-19 10:54:00,33.8,25.4,27.76,West,270,0.0,-999.0,71,-99.99,,,0.00,Acu-Link.com,2014-01-19 16:54:00,
2014-01-19 11:09:00,34.7,26.3,27.74,SW,225,3.7,-999.0,71,-99.99,,,0.00,Acu-Link.com,2014-01-19 17:09:00,
2014-01-19 11:24:00,35.4,26.9,27.73,SSW,202,0.0,-999.0,71,-99.99,,,0.00,Acu-Link.com,2014-01-19 17:24:00,
2014-01-19 11:40:00,36.5,27.3,27.72,WSW,247,1.7,-999.0,69,-99.99,,,0.00,Acu-Link.com,2014-01-19 17:40:00,
2014-01-19 11:55:00,37.8,27.5,27.69,South,180,2.7,-999.0,66,-99.99,,,0.00,Acu-Link.com,2014-01-19 17:55:00,
2014-01-19 12:10:00,37.2,27.3,27.69,SSE,157,1.7,-999.0,67,-99.99,,,0.00,Acu-Link.com,2014-01-19 18:10:00,
2014-01-19 12:25:00,36.7,27.2,27.67,South,180,2.7,-999.0,68,-99.99,,,0.00,Acu-Link.com,2014-01-19 18:25:00,
2014-01-19 12:40:00,38.1,27.4,27.65,SSW,202,5.3,-999.0,65,-99.99,,,0.00,Acu-Link.com,2014-01-19 18:40:00,
2014-01-19 12:55:00,38.8,28.1,27.66,South,180,5.8,-999.0,65,-99.99,,,0.01,Acu-Link.com,2014-01-19 18:55:00,
2014-01-19 13:25:00,37.9,27.9,27.66,WSW,247,0.0,-999.0,67,-99.99,,,0.04,Acu-Link.com,2014-01-19 19:25:00,
2014-01-19 13:40:00,38.7,28.3,27.66,SW,225,6.3,-999.0,66,-99.99,,,0.07,Acu-Link.com,2014-01-19 19:40:00,
2014-01-19 13:56:00,38.8,28.4,27.66,WSW,247,4.2,-999.0,66,-99.99,,,0.08,Acu-Link.com,2014-01-19 19:56:00,
2014-01-19 14:11:00,38.7,28.3,27.65,SSW,202,1.1,-999.0,66,-99.99,,,0.09,Acu-Link.com,2014-01-19 20:11:00,
2014-01-19 14:26:00,38.1,28.5,27.65,SW,225,0.0,-999.0,68,-99.99,,,0.10,Acu-Link.com,2014-01-19 20:26:00,
2014-01-19 14:41:00,40.1,28.9,27.63,SSW,202,3.2,-999.0,64,-99.99,,,0.11,Acu-Link.com,2014-01-19 20:41:00,
2014-01-19 14:56:00,38.5,28.5,27.66,East,90,0.0,-999.0,67,-99.99,,,0.12,Acu-Link.com,2014-01-19 20:56:00,
2014-01-19 15:11:00,39.4,29.4,27.66,WNW,292,0.0,-999.0,67,-99.99,,,0.12,Acu-Link.com,2014-01-19 21:11:00,
2014-01-19 15:26:00,39.9,29.5,27.66,West,270,1.7,-999.0,66,-99.99,,,0.12,Acu-Link.com,2014-01-19 21:26:00,
2014-01-19 15:41:00,38.7,29.4,27.67,SW,225,0.0,-999.0,69,-99.99,,,0.12,Acu-Link.com,2014-01-19 21:41:00,
2014-01-19 15:56:00,36.9,29.1,27.68,West,270,0.0,-999.0,73,-99.99,,,0.12,Acu-Link.com,2014-01-19 21:56:00,
2014-01-19 16:12:00,37.6,29.4,27.68,West,270,0.0,-999.0,72,-99.99,,,0.12,Acu-Link.com,2014-01-19 22:12:00,
2014-01-19 16:27:00,39.6,29.6,27.69,NNW,337,2.7,-999.0,67,-99.99,,,0.12,Acu-Link.com,2014-01-19 22:27:00,
2014-01-19 16:42:00,37.0,28.8,27.69,West,270,3.7,-999.0,72,-99.99,,,0.12,Acu-Link.com,2014-01-19 22:42:00,
2014-01-19 16:57:00,35.8,28.3,27.70,NW,315,4.2,-999.0,74,-99.99,,,0.12,Acu-Link.com,2014-01-19 22:57:00,
2014-01-19 17:13:00,35.6,28.8,27.71,NNW,337,1.7,-999.0,76,-99.99,,,0.12,Acu-Link.com,2014-01-19 23:13:00,
2014-01-19 17:28:00,35.2,28.7,27.71,North,0,3.7,-999.0,77,-99.99,,,0.12,Acu-Link.com,2014-01-19 23:28:00,
2014-01-19 17:43:00,35.2,28.7,27.72,NW,315,2.2,-999.0,77,-99.99,,,0.12,Acu-Link.com,2014-01-19 23:43:00,
2014-01-19 17:58:00,34.7,28.6,27.73,NW,315,2.7,-999.0,78,-99.99,,,0.12,Acu-Link.com,2014-01-19 23:58:00,
2014-01-19 18:13:00,34.5,28.7,27.73,NW,315,4.2,-999.0,79,-99.99,,,0.12,Acu-Link.com,2014-01-20 00:13:00,
2014-01-19 18:29:00,34.3,28.8,27.74,NNW,337,1.7,-999.0,80,-99.99,,,0.12,Acu-Link.com,2014-01-20 00:29:00,
2014-01-19 18:45:00,34.5,28.7,27.76,NNW,337,1.7,-999.0,79,-99.99,,,0.12,Acu-Link.com,2014-01-20 00:45:00,
2014-01-19 19:00:00,34.5,28.7,27.76,North,0,1.7,-999.0,79,-99.99,,,0.12,Acu-Link.com,2014-01-20 01:00:00,
2014-01-19 19:23:00,34.2,28.7,27.78,WNW,292,5.3,-999.0,80,-99.99,,,0.12,Acu-Link.com,2014-01-20 01:23:00,
2014-01-19 19:43:00,33.1,27.6,27.79,WNW,292,6.8,-999.0,80,-99.99,,,0.12,Acu-Link.com,2014-01-20 01:43:00,
2014-01-19 20:04:00,32.2,27.3,27.81,WNW,292,4.7,-999.0,82,-99.99,,,0.12,Acu-Link.com,2014-01-20 02:04:00,